Temperature
23 23 23 22 22 22 21 21 20 20 20 20 19 19 19 19 19 19 19 18 18 18 18 18 18 18 18 18 18 18 18 18 18 18 18 18 18 18 18 18 18 18 18
23 23 23 22 22 22 21 21 21 20 20 20 20 19 19 19 19 19 18 18 18 18 18 18 18 18 18 18 18 18 18 18 18 17 17 17 18 18 18 18 18 18 18
23 23 23 22 22 22 22 21 21 20 20 20 19 19 19 19 18 18 18 18 18 18 18 18 18 18 18 18 18 18 18 18 18 17 17 17 17 17 18 18 18 18 18
23 23 23 22 22 22 22 22 21 21 20 20 19 19 19 19 19 19 19 18 18 18 18 18 18 18 18 18 18 18 18 18 18 18 17 17 17 17 17 17 18 17 17
23 23 23 23 22 22 22 22 21 21 20 20 20 19 19 19 19 18 18 18 18 18 18 18 18 18 18 18 18 18 18 18 18 18 18 17 17 17 17 17 17 17 17
23 23 23 23 22 22 22 22 21 21 20 20 20 19 19 19 19 19 19 18 18 18 18 18 18 18 18 18 18 18 18 18 18 18 18 18 17 17 17 17 17 17 17
23 23 23 22 22 22 22 22 21 21 21 20 20 20 19 19 19 19 19 19 18 18 18 18 18 18 18 18 18 18 18 18 18 18 18 17 17 17 17 17 17 17 17
23 23 23 23 22 22 22 22 21 21 21 20 20 20 19 19 19 19 19 19 19 19 18 18 18 18 18 18 18 18 18 17 17 17 17 17 17 17 17 17 17 16 17
24 23 23 23 22 22 22 22 22 21 21 20 20 20 19 19 19 19 19 18 18 18 18 18 18 18 18 18 18 17 17 17 17 17 17 17 17 17 17 17 17 16 16
24 23 23 23 22 22 22 22 22 21 21 21 20 20 19 19 19 19 18 18 18 18 18 18 18 18 18 18 18 17 17 17 17 17 17 17 17 17 17 17 16 16 16
24 23 23 23 22 22 22 22 21 21 21 20 20 20 19 19 19 19 18 18 18 18 18 18 18 18 17 17 17 17 17 17 17 17 17 17 17 17 17 16 16 16 16
24 24 23 23 22 22 22 21 21 21 21 21 20 20 19 19 19 18 18 18 18 18 18 18 17 17 17 17 17 17 17 17 17 17 17 17 16 16 16 16 16 16 16
24 23 23 23 22 22 22 21 21 21 21 20 20 20 19 19 19 18 18 18 18 18 17 17 17 17 17 17 17 17 17 17 17 16 16 16 16 16 16 16 16 16 16
23 23 23 22 22 22 22 21 21 21 21 20 20 19 19 19 19 18 18 18 18 18 17 17 17 17 17 17 17 17 16 16 16 16 16 16 16 16 16 16 16 16 16
22 22 22 22 22 22 21 21 21 21 20 20 19 19 19 18 18 18 18 18 17 17 17 17 17 17 17 16 16 16 16 16 16 16 16 16 15 15 15 15 15 15 15
22 22 22 22 22 22 21 21 21 21 20 20 20 19 19 18 18 18 18 17 17 17 17 17 16 16 16 16 16 16 16 16 16 16 15 15 15 15 15 15 15 15 15
22 22 22 22 21 21 21 21 21 20 20 20 19 19 18 18 18 18 17 17 17 17 16 16 16 16 16 16 16 16 16 15 15 15 15 15 15 15 15 15 15 15 14
21 21 21 21 21 21 20 20 20 20 20 19 19 19 18 18 17 17 17 17 16 16 16 16 16 15 15 15 15 15 15 15 15 15 15 15 15 14 14 14 14 14 14
21 21 21 21 21 20 20 20 19 19 19 19 18 18 18 17 17 17 16 16 16 16 16 15 15 15 15 15 15 15 15 15 15 15 14 14 14 14 14 14 14 14 14
20 21 20 20 20 20 20 19 19 18 18 18 18 17 17 17 17 16 16 16 16 16 15 15 15 15 15 15 15 15 14 14 14 14 14 14 14 14 14 14 14 14 14
20 20 20 20 19 19 19 18 18 18 18 17 17 17 17 16 16 16 16 16 16 15 15 15 15 15 15 14 14 14 14 14 14 14 14 14 13 13 13 13 13 13 13
19 19 19 19 18 18 18 18 18 17 17 17 17 16 16 16 16 15 15 15 15 15 15 15 14 14 14 14 14 14 14 14 14 13 13 13 13 13 13 13 13 13 13
18 18 18 18 18 17 17 17 17 17 17 16 16 16 15 15 15 15 15 15 14 14 14 14 14 14 14 13 13 13 13 13 13 13 13 13 12 12 12 13 12 12 12
17 17 17 17 17 17 17 17 17 16 16 16 15 15 15 15 15 14 14 14 14 14 14 13 13 13 13 13 13 13 13 13 13 13 12 12 12 12 12 12 12 12 12
16 16 16 17 16 16 16 16 16 16 15 15 15 15 15 14 14 14 14 14 14 14 13 13 13 13 13 12 12 12 12 12 12 12 12 12 12 12 12 12 12 12 11
16 16 16 16 16 15 15 15 15 15 15 14 14 14 14 14 14 13 13 13 13 13 13 13 13 13 12 12 12 12 12 12 12 12 12 12 11 11 11 11 11 11 11
Wind_Speed
12 13 14 14 13 11 11 11 10 9 7 4 4 3 4 4 3 4 7 8 8 8 6 4 3 3 3 4 4 3 2 2 2 1 1 3 2 2 3 3 3 5 8
12 13 13 13 13 13 12 11 11 10 8 6 5 3 3 3 4 4 5 8 8 7 7 5 4 4 3 3 4 3 2 2 2 2 1 2 3 3 2 2 3 4 4
17 16 16 14 13 14 13 12 11 10 9 7 4 3 2 1 1 2 3 5 7 7 6 5 5 4 4 4 4 4 4 3 3 3 3 2 3 2 2 2 2 3 3
16 15 15 16 16 15 13 11 11 10 9 8 7 6 5 4 4 3 3 3 5 6 6 5 5 4 4 4 4 4 4 4 3 2 2 3 3 2 2 3 2 2 2
18 18 17 17 16 15 14 12 11 9 8 8 8 7 5 4 3 3 4 3 3 4 5 4 4 4 4 4 4 3 4 4 4 3 2 2 1 2 2 2 3 2 2
16 16 15 13 12 13 13 12 11 10 9 9 8 8 7 6 5 4 5 4 2 2 3 3 4 4 4 4 4 4 4 4 4 3 2 3 2 2 2 3 3 3 3
15 14 15 14 13 14 14 12 12 10 10 9 9 8 8 7 7 6 6 5 3 3 4 4 3 4 4 4 4 4 4 4 4 4 4 3 3 3 3 3 2 2 3
15 16 16 16 15 15 14 14 13 11 10 10 9 8 8 6 5 6 6 6 5 4 4 4 4 4 4 4 4 3 3 3 3 4 3 3 3 3 3 3 3 1 2
15 15 14 14 14 15 14 14 14 12 12 11 9 8 7 7 6 6 5 5 4 4 4 4 4 4 3 4 4 3 4 3 3 4 3 3 3 3 3 3 4 4 3
13 14 13 13 13 13 12 11 11 11 10 10 9 8 7 7 6 6 6 5 4 4 4 4 4 4 4 3 3 3 3 3 3 3 3 3 3 2 3 3 3 4 4
13 13 13 12 11 11 11 10 10 9 9 9 8 7 7 7 6 6 6 6 5 5 4 4 5 4 4 3 3 3 3 3 4 3 3 4 3 2 2 2 3 3 3
11 12 13 12 11 11 11 11 10 10 10 9 8 7 6 6 6 6 6 5 5 5 5 4 4 4 4 4 4 4 3 3 3 4 3 4 3 3 3 2 3 3 3
10 9 10 11 12 11 11 11 10 10 9 8 8 7 6 7 6 6 5 5 5 5 4 4 4 4 4 4 4 4 4 3 4 4 3 4 3 3 3 3 3 3 3
10 10 9 9 10 10 10 10 10 10 9 8 8 8 8 7 7 6 5 5 5 5 5 5 5 4 4 4 3 4 4 4 3 3 3 4 4 4 4 3 3 3 3
8 9 9 9 9 9 9 9 9 9 9 9 8 8 7 7 6 5 5 5 5 5 4 4 4 4 4 4 4 4 4 4 3 3 3 4 4 5 4 3 3 3 2
9 8 9 9 10 10 10 9 8 9 9 9 9 8 7 6 6 6 5 5 4 4 4 5 5 5 5 5 5 4 3 4 4 4 4 3 3 3 3 4 4 4 4
8 8 8 8 8 8 8 9 9 8 8 8 8 8 8 7 7 7 6 6 6 5 4 5 5 5 5 6 5 6 4 4 4 5 4 4 3 2 2 3 3 3 4
8 7 6 6 5 6 5 6 7 7 8 8 8 8 8 7 7 6 6 6 5 5 5 4 4 4 5 6 6 5 4 4 4 5 5 4 3 3 3 3 3 3 3
7 6 6 6 5 6 5 6 6 7 7 7 7 7 8 8 7 7 6 5 5 4 4 3 4 4 4 5 5 4 3 2 3 3 3 3 3 4 4 3 3 3 5
5 5 5 5 5 4 6 6 6 6 6 6 6 7 7 8 8 8 6 4 4 5 4 3 3 3 3 3 3 4 2 2 2 2 2 3 3 4 4 3 3 4 5
5 6 6 6 5 5 7 6 5 6 5 5 4 4 5 6 6 5 5 4 4 4 3 3 2 2 2 2 2 4 3 3 2 2 2 3 3 4 5 5 5 7 5
5 6 6 4 3 5 6 5 5 5 5 5 4 4 4 4 4 4 4 4 4 4 2 2 1 0 1 2 3 4 4 4 2 2 3 3 3 4 4 4 5 5 3
5 5 6 5 3 3 4 5 3 3 4 4 4 4 3 3 4 4 4 4 4 4 3 2 2 1 1 1 1 2 2 2 2 2 3 3 4 3 3 4 4 3 2
4 4 6 5 3 2 3 4 3 4 5 5 4 4 4 4 3 3 4 4 4 4 3 2 2 1 1 1 1 0 0 1 0 1 2 3 3 1 1 2 1 1 2
3 4 5 5 4 4 4 4 4 5 5 4 4 4 4 4 3 2 2 4 4 5 6 4 4 3 3 4 4 3 1 1 1 0 1 2 2 2 2 2 2 2 1
3 3 5 6 5 5 4 3 4 6 6 4 4 3 3 3 3 3 2 3 1 2 4 5 4 4 4 4 3 3 2 1 2 2 1 0 1 1 1 2 2 2 2
Wind_Direction
172 166 165 164 159 158 159 162 162 165 162 161 161 160 173 175 170 177 180 181 183 182 174 176 184 180 182 189 182 166 165 181 145 106 345 330 308 245 230 215 206 210 215
170 167 166 167 166 166 167 166 168 170 170 172 172 169 166 173 182 184 182 187 185 188 186 181 188 186 177 178 181 163 164 195 168 147 122 331 331 315 250 223 213 214 210
178 174 172 173 171 172 173 173 171 170 172 166 151 140 116 106 146 177 187 191 189 191 191 182 186 187 182 190 196 182 176 196 209 178 158 169 231 289 307 267 233 220 210
181 178 176 176 179 180 176 170 169 167 171 166 163 160 167 177 195 189 186 188 191 190 191 186 187 190 189 193 199 188 185 179 201 217 203 187 172 180 287 313 286 241 216
181 181 182 182 182 179 175 172 169 170 170 167 170 169 173 180 175 166 167 180 194 194 191 191 186 189 196 199 200 191 188 187 190 196 198 199 188 169 177 263 302 307 264
183 182 181 178 178 177 175 172 170 175 173 170 171 172 172 174 165 173 181 191 198 204 204 190 194 196 197 200 203 200 196 202 196 195 185 172 182 196 187 215 253 273 279
182 179 178 177 176 178 177 177 175 177 177 175 177 177 178 176 178 182 187 186 193 207 215 209 206 207 205 199 199 196 202 205 201 206 207 199 208 188 179 187 227 258 278
181 179 181 179 177 177 175 176 179 180 180 182 184 183 180 182 187 185 182 186 195 202 200 201 206 211 208 204 199 203 208 207 211 216 207 207 219 200 188 184 183 239 280
179 179 176 174 175 176 177 178 179 180 184 186 183 184 184 183 184 179 179 185 191 191 188 191 200 211 212 209 193 203 213 207 211 217 210 213 227 216 211 197 185 185 228
173 170 168 168 171 173 172 172 173 181 183 185 187 190 188 187 182 176 182 185 191 192 181 184 193 206 214 211 198 202 220 210 222 215 210 226 236 235 227 214 206 195 199
167 168 167 168 167 167 168 170 174 175 177 181 182 184 185 185 177 179 183 185 186 185 185 181 189 199 205 198 188 202 206 217 232 227 217 229 220 224 233 219 210 209 197
160 162 163 164 167 170 173 174 176 179 183 181 177 181 179 178 181 187 188 184 186 185 184 177 183 198 201 197 197 210 210 210 227 232 226 239 229 225 228 219 221 221 212
144 149 160 167 171 173 175 177 179 181 181 178 178 180 178 180 187 191 190 186 185 188 189 182 185 198 200 199 207 208 206 209 223 227 223 232 223 236 239 232 230 229 227
142 146 156 162 166 172 176 176 180 180 175 174 177 183 188 189 191 189 186 186 184 186 192 194 194 197 197 197 205 209 207 213 223 224 221 226 223 230 233 233 234 228 225
144 149 154 161 161 164 170 174 176 176 174 172 178 188 189 184 181 181 185 185 187 193 195 196 204 206 206 209 201 212 214 213 224 232 235 238 231 224 225 229 228 223 220
157 156 152 157 163 168 171 171 174 176 172 175 185 187 180 180 183 188 185 184 193 199 193 202 209 214 223 220 208 202 216 213 215 230 243 248 232 232 242 243 227 210 209
161 156 155 157 165 171 170 173 176 171 171 179 185 185 185 187 191 190 183 190 196 199 204 211 209 218 227 220 212 213 210 217 223 227 231 242 243 217 241 272 270 253 232
148 146 146 144 147 154 163 171 167 169 176 182 186 184 182 188 188 184 189 194 192 196 203 208 213 220 232 226 224 221 212 218 227 229 219 220 227 227 218 241 266 269 259
146 148 151 146 141 147 155 158 160 164 174 184 187 187 184 184 184 188 193 192 187 194 202 201 204 219 245 236 221 207 209 229 241 238 222 207 214 232 215 206 237 267 273
133 138 136 125 131 144 143 148 158 163 181 190 191 188 182 181 189 193 194 193 186 192 194 198 204 210 234 240 215 182 182 225 259 263 251 233 226 237 214 205 218 247 263
129 128 126 125 141 143 137 146 162 180 190 187 181 178 181 184 185 187 187 180 179 177 180 180 195 206 219 228 185 162 167 195 224 257 268 264 250 252 241 219 225 239 245
125 131 126 122 129 138 139 145 174 188 177 169 166 173 180 182 176 169 174 167 165 164 169 162 155 259 260 221 188 171 178 183 183 239 257 260 266 268 260 240 241 242 232
136 136 133 128 125 135 142 152 177 165 153 150 157 163 159 159 162 163 163 154 154 162 170 166 175 229 281 263 216 186 186 184 183 233 263 269 262 268 276 268 248 230 217
134 137 135 133 131 132 130 140 138 131 129 137 152 156 151 153 150 156 163 160 165 166 164 173 187 210 258 266 282 296 116 97 68 299 296 298 296 275 277 307 288 240 213
126 134 143 139 129 114 111 116 122 121 122 129 139 143 145 143 138 137 159 169 183 181 178 193 196 194 230 251 231 203 211 226 233 308 21 17 8 4 348 339 329 302 285
126 128 127 124 120 116 114 115 120 122 124 126 134 146 150 146 141 129 82 43 112 161 187 197 194 206 214 222 221 213 225 220 170 122 93 21 322 288 288 296 309 309 284
Height
1510 1513 1515 1518 1520 1522 1524 1526 1528 1530 1532 1533 1534 1536 1537 1538 1540 1541 1542 1543 1544 1545 1546 1547 1548 1549 1549 1550 1551 1552 1552 1552 1553 1553 1554 1554 1554 1554 1554 1554 1554 1555 1555
1509 1510 1513 1516 1517 1520 1522 1524 1526 1528 1530 1532 1533 1535 1536 1538 1539 1540 1541 1542 1543 1544 1545 1546 1547 1547 1548 1549 1549 1550 1551 1551 1552 1552 1552 1552 1553 1552 1552 1552 1552 1552 1553
1504 1506 1509 1512 1515 1517 1519 1522 1524 1526 1529 1531 1533 1535 1536 1537 1538 1539 1540 1541 1542 1543 1544 1544 1545 1546 1546 1547 1548 1548 1549 1549 1550 1550 1551 1550 1549 1550 1550 1550 1550 1550 1551
1501 1503 1506 1508 1511 1514 1517 1520 1522 1525 1527 1529 1531 1533 1534 1535 1536 1538 1539 1540 1541 1542 1543 1543 1544 1544 1545 1545 1546 1547 1547 1547 1548 1548 1549 1549 1549 1549 1548 1548 1548 1548 1548
1496 1499 1502 1505 1508 1512 1515 1518 1521 1523 1525 1527 1529 1531 1532 1534 1535 1537 1538 1538 1539 1540 1540 1541 1542 1542 1543 1543 1544 1544 1545 1545 1545 1545 1546 1547 1547 1547 1546 1546 1546 1546 1546
1493 1495 1499 1503 1506 1510 1513 1516 1518 1520 1523 1525 1527 1529 1530 1532 1533 1534 1535 1536 1537 1538 1538 1539 1540 1540 1540 1541 1541 1542 1542 1542 1542 1543 1543 1544 1544 1544 1544 1544 1543 1543 1544
1489 1492 1496 1499 1503 1506 1510 1513 1515 1518 1520 1523 1525 1526 1528 1530 1531 1532 1533 1534 1535 1535 1536 1537 1537 1538 1538 1538 1539 1539 1539 1540 1540 1540 1540 1541 1541 1542 1542 1542 1541 1541 1541
1484 1488 1491 1494 1498 1502 1506 1509 1512 1514 1517 1520 1522 1524 1526 1527 1529 1530 1531 1532 1532 1533 1534 1534 1535 1536 1536 1536 1536 1536 1537 1537 1537 1538 1538 1538 1539 1539 1539 1540 1539 1539 1538
1480 1484 1488 1492 1495 1499 1502 1505 1508 1511 1514 1517 1519 1522 1524 1525 1526 1527 1529 1530 1530 1531 1532 1532 1532 1533 1534 1534 1534 1534 1534 1535 1535 1535 1535 1536 1536 1536 1537 1537 1537 1538 1536
1477 1481 1485 1489 1493 1496 1499 1503 1506 1508 1511 1514 1517 1519 1521 1522 1524 1525 1526 1527 1528 1529 1529 1529 1530 1530 1531 1531 1531 1531 1531 1532 1532 1532 1532 1533 1533 1533 1534 1534 1534 1534 1534
1473 1478 1482 1486 1491 1495 1498 1501 1503 1506 1509 1511 1513 1516 1518 1520 1521 1522 1523 1524 1526 1526 1527 1527 1527 1528 1528 1528 1528 1528 1528 1528 1528 1529 1529 1529 1530 1530 1530 1530 1530 1530 1530
1472 1476 1480 1484 1489 1492 1495 1498 1501 1503 1506 1508 1511 1513 1515 1516 1518 1519 1521 1522 1523 1524 1524 1524 1525 1525 1525 1525 1525 1525 1525 1525 1525 1525 1525 1526 1526 1526 1527 1527 1526 1527 1526
1471 1475 1478 1481 1485 1488 1492 1495 1498 1501 1503 1506 1508 1510 1512 1513 1515 1516 1518 1519 1520 1521 1521 1522 1522 1522 1522 1522 1522 1522 1522 1522 1522 1522 1522 1522 1523 1522 1523 1522 1522 1523 1523
1469 1472 1475 1479 1482 1486 1489 1492 1495 1498 1500 1503 1504 1506 1508 1510 1512 1513 1515 1516 1517 1518 1518 1519 1519 1519 1519 1519 1519 1519 1519 1519 1519 1519 1519 1519 1519 1519 1519 1519 1519 1519 1519
1469 1471 1473 1476 1479 1483 1487 1490 1492 1495 1497 1499 1501 1502 1505 1507 1509 1510 1511 1512 1513 1514 1515 1516 1516 1516 1516 1515 1515 1515 1515 1515 1515 1515 1515 1516 1516 1515 1515 1515 1515 1515 1515
1468 1469 1472 1474 1477 1480 1483 1486 1489 1492 1494 1496 1497 1499 1501 1503 1504 1506 1507 1508 1510 1511 1511 1512 1512 1512 1512 1512 1512 1512 1512 1512 1512 1512 1512 1512 1512 1512 1512 1512 1511 1511 1511
1467 1469 1471 1473 1475 1478 1481 1483 1486 1488 1490 1492 1494 1496 1497 1499 1501 1502 1504 1505 1506 1507 1507 1508 1508 1508 1508 1509 1508 1508 1508 1508 1508 1508 1508 1508 1508 1508 1508 1508 1508 1507 1507
1465 1467 1470 1472 1474 1476 1479 1481 1483 1486 1487 1489 1490 1492 1493 1495 1497 1498 1500 1501 1502 1503 1503 1504 1504 1505 1505 1505 1505 1505 1505 1504 1504 1504 1504 1503 1503 1504 1504 1504 1503 1503 1503
1463 1465 1468 1469 1471 1473 1476 1478 1480 1482 1484 1485 1487 1488 1490 1491 1493 1494 1496 1497 1498 1499 1500 1500 1501 1501 1501 1501 1501 1501 1501 1500 1500 1500 1499 1499 1498 1499 1499 1499 1499 1499 1499
1462 1463 1465 1467 1469 1470 1473 1475 1476 1478 1480 1481 1483 1484 1486 1487 1489 1490 1492 1493 1494 1495 1496 1496 1497 1497 1497 1497 1497 1497 1497 1496 1495 1495 1495 1495 1495 1494 1494 1495 1495 1494 1495
1460 1461 1463 1464 1466 1468 1470 1471 1473 1474 1476 1478 1479 1481 1482 1484 1485 1487 1488 1489 1490 1491 1492 1492 1493 1493 1493 1493 1493 1493 1492 1492 1491 1491 1490 1490 1490 1490 1490 1490 1490 1490 1491
1458 1459 1461 1462 1464 1466 1467 1468 1470 1471 1473 1474 1475 1476 1478 1480 1481 1483 1484 1485 1487 1487 1488 1488 1489 1489 1489 1489 1489 1488 1488 1488 1487 1487 1486 1486 1486 1486 1486 1486 1486 1486 1487
1457 1458 1459 1460 1462 1463 1464 1465 1466 1468 1469 1470 1471 1472 1475 1476 1478 1479 1480 1481 1483 1484 1484 1485 1484 1485 1485 1486 1486 1486 1485 1485 1484 1483 1483 1483 1482 1482 1482 1482 1482 1482 1482
1456 1457 1457 1458 1459 1460 1461 1462 1463 1465 1465 1466 1467 1469 1471 1473 1474 1475 1476 1477 1478 1480 1480 1481 1481 1482 1483 1483 1483 1482 1482 1482 1481 1481 1480 1480 1479 1479 1479 1478 1478 1478 1478
1454 1454 1455 1455 1456 1458 1459 1460 1461 1462 1462 1464 1465 1466 1468 1470 1471 1472 1474 1475 1476 1477 1478 1479 1479 1479 1480 1480 1480 1480 1479 1479 1478 1478 1477 1477 1476 1475 1475 1475 1474 1474 1474
1453 1453 1453 1454 1455 1457 1457 1458 1459 1459 1460 1461 1463 1464 1466 1467 1469 1470 1472 1474 1475 1476 1477 1477 1477 1478 1478 1478 1478 1477 1477 1476 1476 1475 1474 1474 1473 1473 1472 1471 1470 1470 1469